DL7GAI-7 Weather Reports


Display with metric or nautical units.
time (UTC)temp
F
wind
direction
speed
MPH
gust
MPH
rain 1hr
in
rain 24hr
in
rain mn
in
humidity
%
barometer
mb
20200714011151 60 0 4.0 6.0 0.00 0.00 0.00 66 1017.7
20200714005934 62 0 4.0 6.0 0.00 0.00 0.00 63 1017.7
20200714004725 62 0 4.0 6.0 0.00 0.00 0.00 63 1017.7
20200714003445 62 45 2.0 6.0 0.00 0.00 0.00 60 1017.8
20200714002200 62 45 2.0 6.0 0.00 0.00 0.00 60 1017.8
20200714000822 62 45 2.0 6.0 0.00 0.00 0.00 60 1017.8
20200713235459 63 90 5.0 8.0 0.00 0.00 0.00 57 1017.8
20200713234140 63 90 5.0 8.0 0.00 0.00 0.00 57 1017.8
20200713232851 64 90 3.0 6.0 0.00 0.00 0.00 55 1018.0
20200713231423 64 90 3.0 6.0 0.00 0.00 0.00 55 1018.0
20200713230202 65 90 4.0 9.0 0.00 0.00 0.00 53 1017.9
20200713224728 65 90 4.0 9.0 0.00 0.00 0.00 53 1017.9
20200713223346 66 90 4.0 9.0 0.00 0.00 0.00 51 1017.9
20200713221940 66 90 4.0 9.0 0.00 0.00 0.00 51 1017.9
20200713220635 66 90 4.0 9.0 0.00 0.00 0.00 51 1017.9
20200713215808 66 0 2.0 6.0 0.00 0.00 0.00 54 1018.1
20200713213915 66 0 2.0 6.0 0.00 0.00 0.00 54 1018.1
20200713212613 68 45 2.0 6.0 0.00 0.00 0.00 50 1017.8
20200713211249 68 45 2.0 6.0 0.00 0.00 0.00 50 1017.8
20200713205948 68 45 4.0 10.0 0.00 0.00 0.00 49 1017.6
20200713204727 68 45 4.0 10.0 0.00 0.00 0.00 49 1017.6
20200713203344 70 45 4.0 10.0 0.00 0.00 0.00 46 1017.2
20200713201909 70 45 4.0 10.0 0.00 0.00 0.00 46 1017.2
20200713200543 72 90 6.0 11.0 0.00 0.00 0.00 43 1016.9
20200713195206 72 90 6.0 11.0 0.00 0.00 0.00 43 1016.9
20200713193851 72 90 6.0 11.0 0.00 0.00 0.00 43 1016.9
20200713192514 74 90 4.0 10.0 0.00 0.00 0.00 40 1016.6
20200713191204 74 90 4.0 10.0 0.00 0.00 0.00 40 1016.6
20200713185852 75 45 5.0 11.0 0.00 0.00 0.00 37 1016.6
20200713184414 75 45 5.0 11.0 0.00 0.00 0.00 37 1016.6
20200713183112 77 45 3.0 7.0 0.00 0.00 0.00 31 1016.6
20200713181715 77 45 3.0 7.0 0.00 0.00 0.00 31 1016.6
20200713180514 77 90 4.0 6.0 0.00 0.00 0.00 30 1016.7
20200713175108 77 90 4.0 6.0 0.00 0.00 0.00 30 1016.7
20200713173718 77 90 4.0 6.0 0.00 0.00 0.00 30 1016.7
20200713172453 79 0 3.0 6.0 0.00 0.00 0.00 32 1016.6
20200713171046 79 0 3.0 6.0 0.00 0.00 0.00 32 1016.6
20200713165621 78 315 5.0 9.0 0.00 0.00 0.00 29 1017.0
20200713164349 78 315 5.0 9.0 0.00 0.00 0.00 29 1017.0
20200713162909 78 90 4.0 9.0 0.00 0.00 0.00 31 1017.2
20200713161506 78 90 4.0 9.0 0.00 0.00 0.00 31 1017.2
20200713160137 77 0 2.0 9.0 0.00 0.00 0.00 29 1017.6
20200713154819 77 0 2.0 9.0 0.00 0.00 0.00 29 1017.6
20200713153501 78 0 5.0 9.0 0.00 0.00 0.00 31 1017.6
20200713152134 78 0 5.0 9.0 0.00 0.00 0.00 31 1017.6
20200713150731 78 0 5.0 9.0 0.00 0.00 0.00 31 1017.6
20200713145428 78 0 4.0 9.0 0.00 0.00 0.00 32 1017.7
20200713144204 78 0 4.0 9.0 0.00 0.00 0.00 32 1017.7
20200713142829 77 0 4.0 9.0 0.00 0.00 0.00 30 1018.0
20200713141453 77 0 4.0 9.0 0.00 0.00 0.00 30 1018.0
20200713140209 76 45 5.0 11.0 0.00 0.00 0.00 33 1018.3
20200713134726 76 45 5.0 11.0 0.00 0.00 0.00 33 1018.3
20200713133249 76 0 4.0 9.0 0.00 0.00 0.00 34 1018.7
20200713131820 76 0 4.0 9.0 0.00 0.00 0.00 34 1018.7
20200713130523 74 45 4.0 11.0 0.00 0.00 0.00 33 1019.0
20200713125228 74 45 4.0 11.0 0.00 0.00 0.00 33 1019.0
20200713123907 74 45 4.0 11.0 0.00 0.00 0.00 33 1019.0
20200713122509 73 90 5.0 10.0 0.00 0.00 0.00 37 1019.3
20200713121253 73 90 5.0 10.0 0.00 0.00 0.00 37 1019.3
20200713115905 74 135 5.0 11.0 0.00 0.00 0.00 38 1019.6
20200713114622 74 135 5.0 11.0 0.00 0.00 0.00 38 1019.6
20200713113241 74 45 3.0 11.0 0.00 0.00 0.00 39 1019.7
20200713111834 74 45 3.0 11.0 0.00 0.00 0.00 39 1019.7
20200713110437 71 0 5.0 9.0 0.00 0.00 0.00 43 1020.2
20200713105056 71 0 5.0 9.0 0.00 0.00 0.00 43 1020.2
20200713103752 71 0 5.0 9.0 0.00 0.00 0.00 43 1020.2
20200713102407 70 135 4.0 6.0 0.00 0.00 0.00 44 1020.5
20200713101119 70 135 4.0 6.0 0.00 0.00 0.00 44 1020.5
20200713095706 70 90 3.0 7.0 0.00 0.00 0.00 46 1020.6
20200713094312 70 90 3.0 7.0 0.00 0.00 0.00 46 1020.6
20200713092932 67 180 4.0 7.0 0.00 0.00 0.00 50 1020.8
20200713091639 67 180 4.0 7.0 0.00 0.00 0.00 50 1020.8
20200713090304 67 135 4.0 7.0 0.00 0.00 0.00 49 1021.1
20200713084921 67 135 4.0 7.0 0.00 0.00 0.00 49 1021.1
20200713083646 67 135 4.0 7.0 0.00 0.00 0.00 49 1021.1
20200713082239 66 90 4.0 7.0 0.00 0.00 0.00 50 1021.3
20200713080834 66 90 4.0 7.0 0.00 0.00 0.00 50 1021.3
20200713075506 64 45 4.0 7.0 0.00 0.00 0.00 52 1021.4
20200713074102 64 45 4.0 7.0 0.00 0.00 0.00 52 1021.4
20200713072640 64 45 4.0 7.0 0.00 0.00 0.00 54 1021.6
20200713071210 64 45 4.0 7.0 0.00 0.00 0.00 54 1021.6
20200713065835 60 180 1.0 4.0 0.00 0.00 0.00 67 1021.9
20200713064547 60 180 1.0 4.0 0.00 0.00 0.00 67 1021.9
20200713063156 58 225 2.0 4.0 0.00 0.00 0.00 73 1022.0
20200713061816 58 225 2.0 4.0 0.00 0.00 0.00 73 1022.0
20200713060416 57 90 1.0 7.0 0.00 0.00 0.00 74 1022.1
20200713055110 57 90 1.0 7.0 0.00 0.00 0.00 74 1022.1
20200713053830 57 90 1.0 7.0 0.00 0.00 0.00 74 1022.1
20200713052451 57 0 4.0 7.0 0.00 0.00 0.00 70 1022.0
20200713051203 57 0 4.0 7.0 0.00 0.00 0.00 70 1022.0
20200713045849 56 0 2.0 9.0 0.00 0.00 0.00 71 1022.0
20200713044532 56 0 2.0 9.0 0.00 0.00 0.00 71 1022.0
20200713043137 57 45 4.0 9.0 0.00 0.00 0.00 68 1021.8
20200713041820 57 45 4.0 9.0 0.00 0.00 0.00 68 1021.8
20200713040521 57 45 4.0 7.0 0.00 0.00 0.00 68 1021.9
20200713035122 57 45 4.0 7.0 0.00 0.00 0.00 68 1021.9
20200713033723 57 45 4.0 7.0 0.00 0.00 0.00 68 1021.9
20200713032440 58 45 3.0 6.0 0.00 0.00 0.00 65 1021.9
20200713031132 58 45 3.0 6.0 0.00 0.00 0.00 65 1021.9
20200713025806 59 45 4.0 9.0 0.00 0.00 0.00 62 1021.9
20200713024423 59 45 4.0 9.0 0.00 0.00 0.00 62 1021.9
20200713023032 60 45 4.0 9.0 0.00 0.00 0.00 62 1021.9
20200713021725 60 45 4.0 9.0 0.00 0.00 0.00 62 1021.9
20200713020401 59 45 4.0 9.0 0.00 0.00 0.00 66 1022.2
20200713015113 59 45 4.0 9.0 0.00 0.00 0.00 66 1022.2
20200713013727 59 45 4.0 9.0 0.00 0.00 0.00 66 1022.2
20200713012308 61 0 4.0 9.0 0.00 0.00 0.00 60 1022.2